Greenville, AL

9:53 PM CST on December 09, 2016 (GMT -0600)
Greenville Municipal

Weather History for KPRN - July, 2013

Change the Weather History Date:

Friday, July 26, 2013

  Actual Average Record
Temperature  
Mean Temperature 78 °F -  
Max Temperature 89 °F 92 °F 99 °F (1981)
Min Temperature 68 °F 69 °F 64 °F (1988)
Cooling Degree Days 14    
Growing Degree Days 28 (Base 50)    
Moisture  
Dew Point 68 °F    
Average Humidity 75    
Maximum Humidity 94    
Minimum Humidity 43    
Precipitation  
Precipitation 0.00 in - - ()
Sea Level Pressure  
Sea Level Pressure 30.00 in    
Wind  
Wind Speed 1 mph (West)    
Max Wind Speed 7 mph    
Max Gust Speed -    
Visibility 8 miles    
Events      
Averages and records for this station are not official NWS values.
T = Trace of Precipitation, MM = Missing Value Source: NWS Daily Summary

Daily Weather History Graph

Daily Weather History Graph

Search for Another Location

Airport or City:

Trip Planner

Search our weather history database for the weather conditions in past years. The results will help you decide how hot, cold, wet, or windy it might be!

Date:

Astronomy

Jul. 26, 2013 Rise Set
Actual Time 5:58 AM CDT 7:47 PM CDT
Civil Twilight 5:31 AM CDT 8:14 PM CDT
Nautical Twilight 4:58 AM CDT 8:46 PM CDT
Astronomical Twilight 4:24 AM CDT 9:20 PM CDT
Moon 10:23 PM CDT (7/26) 10:13 AM CDT (7/26)
Length of Visible Light 14h 42m
Length of Day
13h 48m
Waning Gibbous, 80% of the Moon is Illuminated
Jul 26
Waning Gibbous
Jul 29
Last Quarter
Aug 6
New
Aug 14
First Quarter
Aug 20
Full

Hourly Weather History & Observations

Time (CDT) Temp. Heat Index Dew Point Humidity Pressure Visibility Wind Dir Wind Speed Gust Speed Precip Events Conditions
12:56 AM 73.0 °F - 70.0 °F 90% 30.00 in 8.0 mi Calm Calm - N/A   Clear
1:56 AM 72.0 °F - 69.1 °F 91% 29.99 in 8.0 mi Calm Calm - N/A   Clear
2:56 AM 71.1 °F - 68.0 °F 90% 29.99 in 8.0 mi Calm Calm - N/A   Clear
3:56 AM 72.0 °F - 68.0 °F 87% 29.99 in 10.0 mi Calm Calm - N/A   Clear
4:56 AM 70.0 °F - 66.9 °F 90% 30.00 in 9.0 mi Calm Calm - N/A   Clear
5:56 AM 69.1 °F - 66.0 °F 90% 30.01 in 4.0 mi Calm Calm - N/A   Clear
6:35 AM 68.0 °F - 66.2 °F 94% 30.02 in 2.0 mi Calm Calm - N/A   Clear
6:48 AM 69.8 °F - 66.2 °F 88% 30.03 in 4.0 mi Calm Calm - N/A   Clear
6:56 AM 69.1 °F - 66.9 °F 93% 30.01 in 4.0 mi Calm Calm - N/A   Clear
7:56 AM 73.9 °F - 70.0 °F 87% 30.03 in 9.0 mi Calm Calm - N/A   Clear
8:56 AM 80.1 °F 82.7 °F 68.0 °F 67% 30.04 in 10.0 mi WNW 3.5 mph - N/A   Clear
9:56 AM 84.0 °F 86.5 °F 66.9 °F 56% 30.03 in 10.0 mi West 4.6 mph - N/A   Clear
11:56 AM 87.1 °F 89.2 °F 66.0 °F 49% 30.04 in 10.0 mi Variable 6.9 mph - N/A   Clear
12:56 PM 87.1 °F 88.3 °F 64.0 °F 46% 30.03 in 10.0 mi West 5.8 mph - N/A   Clear
1:56 PM 87.1 °F 87.8 °F 63.0 °F 44% 30.01 in 10.0 mi SW 4.6 mph - N/A   Clear
3:56 PM 89.1 °F 90.3 °F 64.0 °F 43% 29.98 in 10.0 mi Variable 3.5 mph - N/A   Clear
4:56 PM 89.1 °F 92.1 °F 66.9 °F 48% 29.98 in 10.0 mi WNW 3.5 mph - N/A   Partly Cloudy
5:56 PM 84.9 °F 87.6 °F 66.9 °F 55% 29.98 in 10.0 mi NW 4.6 mph - N/A   Clear
6:56 PM 84.0 °F 88.4 °F 70.0 °F 63% 29.98 in 10.0 mi Calm Calm - N/A   Clear
7:56 PM 81.0 °F 84.9 °F 71.1 °F 72% 29.97 in 10.0 mi Calm Calm - N/A   Partly Cloudy
8:56 PM 77.0 °F - 73.0 °F 88% 29.97 in 10.0 mi Calm Calm - N/A   Clear
9:56 PM 73.9 °F - 71.1 °F 91% 29.98 in 10.0 mi Calm Calm - N/A   Clear
10:56 PM 73.9 °F - 71.1 °F 91% 29.97 in 9.0 mi Calm Calm - N/A   Clear
11:56 PM 72.0 °F - 70.0 °F 93% 29.96 in 6.0 mi Calm Calm - N/A   Clear